Location: Sluknov
(51.0170°N, 14.4670°E)
Time: 10:22:14
(UTC+01:00)

ISS - Pass Details

Date: 25 February 2026
Orbit: 416 x 426 km, 51.6° (Epoch: 9 March)

Event Time Altitude Azimuth Distance (km) Brightness Sun altitude
Exits shadow 05:52:16 16° 280° (W) 1,165 -2.2 -10.7°
Maximum altitude 05:54:48 77° 195° (SSW) 431 -3.8 -10.3°
Drops below altitude 10° 05:58:08 10° 110° (ESE) 1,490 0.4 -9.7°
Sets 06:00:13 0° 109° (ESE) 2,351 1.8 -9.4°
